Brownsville, TX

11:46 AM CDT on August 30, 2016 (GMT -0500)
Brownsville-South Padre I International

Weather History for KBRO - March, 2014

Change the Weather History Date:

Thursday, March 6, 2014

  Actual Average Record
Temperature  
Mean Temperature 58 °F 67 °F  
Max Temperature 68 °F 77 °F 92 °F (1922)
Min Temperature 47 °F 58 °F 33 °F (1989)
Degree Days  
Heating Degree Days 7 2  
Month to date heating degree days 49 12  
Since 1 July heating degree days 773 515  
Cooling Degree Days 0 5  
Month to date cooling degree days 19 25  
Year to date cooling degree days 139 166  
Growing Degree Days 8 (Base 50)    
Moisture  
Dew Point 52 °F    
Average Humidity 76    
Maximum Humidity 100    
Minimum Humidity 52    
Precipitation  
Precipitation 0.00 in 0.04 in 1.13 in (1892)
Month to date precipitation 0.28 0.22  
Year to date precipitation 1.04 2.57  
Sea Level Pressure  
Sea Level Pressure 30.14 in    
Wind  
Wind Speed 7 mph (North)    
Max Wind Speed 17 mph    
Max Gust Speed 22 mph    
Visibility 9 miles    
Events      
T = Trace of Precipitation, MM = Missing Value Source: NWS Daily Summary

Daily Weather History Graph

Daily Weather History Graph

Search for Another Location

Airport or City:

Trip Planner

Search our weather history database for the weather conditions in past years. The results will help you decide how hot, cold, wet, or windy it might be!

Date:

Astronomy

Mar. 06, 2014 Rise Set
Actual Time 6:48 AM CST 6:34 PM CST
Civil Twilight 6:25 AM CST 6:57 PM CST
Nautical Twilight 5:58 AM CST 7:23 PM CST
Astronomical Twilight 5:31 AM CST 7:50 PM CST
Moon 10:29 AM CST (3/6) No Moon Set
Length of Visible Light 12h 32m
Length of Day
11h 45m
Waxing Crescent, 32% of the Moon is Illuminated
Mar 6
Waxing Crescent
Mar 8
First Quarter
Mar 16
Full
Mar 23
Last Quarter
Mar 30
New

Hourly Weather History & Observations

Time (CST) Temp. Dew Point Humidity Pressure Visibility Wind Dir Wind Speed Gust Speed Precip Events Conditions
12:23 AM 59.0 °F 57.2 °F 94% 30.06 in 5.0 mi WNW 3.5 mph - N/A   Overcast
12:53 AM 57.9 °F 57.0 °F 97% 30.07 in 6.0 mi NNW 8.1 mph - N/A   Overcast
1:24 AM 57.2 °F 57.2 °F 100% 30.08 in 6.0 mi NNW 9.2 mph - N/A   Overcast
1:53 AM 57.9 °F 57.0 °F 97% 30.08 in 6.0 mi NNW 9.2 mph - N/A   Overcast
2:34 AM 57.2 °F 55.4 °F 94% 30.09 in 8.0 mi NNW 12.7 mph - N/A   Overcast
2:53 AM 57.0 °F 55.9 °F 96% 30.09 in 8.0 mi North 9.2 mph - N/A   Overcast
3:53 AM 57.0 °F 55.9 °F 96% 30.10 in 8.0 mi North 5.8 mph - 0.00 in   Overcast
4:53 AM 57.0 °F 55.0 °F 93% 30.11 in 10.0 mi North 9.2 mph - N/A   Overcast
5:23 AM 57.2 °F 55.4 °F 94% 30.13 in 10.0 mi North 8.1 mph - N/A   Overcast
5:53 AM 55.9 °F 54.0 °F 93% 30.14 in 10.0 mi North 6.9 mph - N/A   Overcast
6:15 AM 55.4 °F 53.6 °F 94% 30.15 in 10.0 mi North 5.8 mph - N/A   Overcast
6:23 AM 55.4 °F 53.6 °F 94% 30.15 in 10.0 mi North 5.8 mph - N/A   Overcast
6:53 AM 55.9 °F 53.1 °F 90% 30.17 in 10.0 mi North 4.6 mph - N/A   Overcast
7:53 AM 55.9 °F 53.1 °F 90% 30.19 in 10.0 mi NNW 5.8 mph - N/A   Overcast
8:16 AM 55.4 °F 51.8 °F 88% 30.20 in 10.0 mi North 5.8 mph - N/A   Overcast
8:53 AM 57.0 °F 53.1 °F 87% 30.22 in 10.0 mi North 8.1 mph - N/A   Overcast
9:29 AM 57.2 °F 53.6 °F 88% 30.23 in 10.0 mi North 10.4 mph - N/A   Overcast
9:53 AM 57.9 °F 53.1 °F 84% 30.23 in 10.0 mi NNW 9.2 mph - N/A   Overcast
10:23 AM 59.0 °F 53.6 °F 82% 30.23 in 10.0 mi North 9.2 mph - N/A   Overcast
10:41 AM 60.8 °F 53.6 °F 77% 30.23 in 10.0 mi North 9.2 mph - N/A   Overcast
10:53 AM 61.0 °F 53.1 °F 75% 30.22 in 10.0 mi North 11.5 mph - N/A   Overcast
11:53 AM 64.9 °F 52.0 °F 63% 30.22 in 10.0 mi Variable 6.9 mph - N/A   Overcast
12:16 PM 64.4 °F 51.8 °F 64% 30.21 in 10.0 mi North 9.2 mph - N/A   Overcast
12:53 PM 64.9 °F 52.0 °F 63% 30.19 in 10.0 mi North 9.2 mph - N/A   Overcast
1:53 PM 68.0 °F 52.0 °F 56% 30.16 in 10.0 mi North 6.9 mph - N/A   Overcast
2:18 PM 64.4 °F 48.2 °F 56% 30.15 in 10.0 mi ENE 12.7 mph 21.9 mph N/A   Overcast
2:53 PM 64.9 °F 48.0 °F 54% 30.14 in 10.0 mi NE 12.7 mph 21.9 mph N/A   Mostly Cloudy
3:53 PM 64.9 °F 48.0 °F 54% 30.11 in 10.0 mi NE 9.2 mph - N/A   Clear
4:53 PM 64.0 °F 46.9 °F 54% 30.09 in 10.0 mi ENE 11.5 mph - N/A   Clear
5:53 PM 60.1 °F 48.0 °F 64% 30.10 in 10.0 mi ENE 6.9 mph - N/A   Clear
6:53 PM 55.9 °F 48.0 °F 75% 30.09 in 10.0 mi East 6.9 mph - N/A   Clear
7:53 PM 53.1 °F 48.0 °F 83% 30.09 in 10.0 mi ESE 3.5 mph - N/A   Clear
8:53 PM 53.1 °F 48.0 °F 83% 30.09 in 10.0 mi East 3.5 mph - N/A   Clear
9:53 PM 51.1 °F 48.9 °F 92% 30.11 in 10.0 mi ENE 4.6 mph - N/A   Clear
10:53 PM 48.9 °F 46.9 °F 93% 30.11 in 10.0 mi South 5.8 mph - N/A   Clear
11:53 PM 50.0 °F 46.9 °F 89% 30.10 in 10.0 mi Calm Calm - N/A   Clear